FW9001 Weather Reports


time (UTC)temp
F
wind
direction
speed
knots
gust
knots
rain 1hr
in
rain 24hr
in
rain mn
in
humidity
%
barometer
mb
20260504000029 61 217 11.3 20.0 0.00 0.14 0.14 59 1008.2
20260503234529 61 234 10.4 20.9 0.00 0.14 0.14 59 1008.3
20260503233035 61 198 10.4 20.9 0.00 0.14 0.14 58 1008.6
20260503231534 61 219 12.2 21.7 0.00 0.14 0.14 57 1008.7
20260503230029 61 225 10.4 20.9 0.00 0.14 0.14 57 1008.9
20260503224533 61 184 9.6 17.4 0.00 0.14 0.14 56 1009.1
20260503223032 61 217 8.7 20.0 0.00 0.14 0.14 57 1009.2
20260503221531 60 236 10.4 25.2 0.00 0.14 0.14 57 1009.5
20260503220031 60 203 9.6 18.2 0.00 0.14 0.14 58 1009.7
20260503214528 60 217 8.7 27.8 0.00 0.14 0.14 57 1009.8
20260503213039 60 228 14.8 27.8 0.00 0.14 0.14 54 1010.1
20260503211536 60 234 14.8 29.5 0.00 0.14 0.14 54 1010.0
20260503210034 61 236 15.6 29.5 0.00 0.14 0.14 57 1010.0
20260503204532 57 184 14.8 20.9 0.00 0.14 0.14 74 1010.1
20260503203030 55 176 17.4 22.6 0.00 0.14 0.14 78 1010.3
20260503201530 53 172 14.8 17.4 0.00 0.14 0.14 83 1010.7
20260503200032 52 174 13.0 16.5 0.00 0.14 0.14 85 1011.3
20260503194534 50 171 10.4 15.6 0.01 0.14 0.14 86 1011.7
20260503193029 49 169 11.3 15.6 0.08 0.14 0.14 88 1012.0
20260503191528 48 158 11.3 13.9 0.10 0.14 0.14 89 1012.2
20260503190043 48 171 7.0 9.6 0.11 0.14 0.14 88 1013.1
20260503184531 48 214 5.2 8.7 0.12 0.13 0.13 88 1013.9
20260503183030 49 250 5.2 13.0 0.06 0.06 0.06 87 1014.4
20260503181528 49 233 8.7 18.2 0.04 0.04 0.04 84 1014.6
20260503180039 49 245 7.8 12.2 0.03 0.03 0.03 83 1014.6
20260503174529 50 256 7.8 22.6 0.01 0.01 0.01 80 1015.0
20260503173034 51 265 13.0 20.0 0.00 0.00 0.00 74 1015.0
20260503171538 53 260 13.9 27.8 0.00 0.00 0.00 69 1014.7
20260503081538 42 235 4.3 9.6 0.00 0.00 0.00 68 1016.0
20260503071530 42 249 3.5 7.8 0.00 0.00 0.00 68 1016.3
20260503054537 44 233 4.3 8.7 0.00 0.00 0.00 66 1017.0
20260503053028 44 238 4.3 8.7 0.00 0.00 0.00 65 1017.1
20260503051526 44 232 4.3 8.7 0.00 0.00 0.00 64 1017.1
20260503050028 45 231 3.5 8.7 0.00 0.00 0.00 63 1017.3
20260503044528 45 224 3.5 7.0 0.00 0.00 0.00 62 1017.3
20260503043031 45 219 3.5 7.8 0.00 0.00 0.00 60 1017.2
20260503041528 46 233 3.5 7.8 0.00 0.00 0.00 59 1017.3
20260503040028 46 231 4.3 8.7 0.00 0.00 0.00 58 1017.4
20260503034527 46 224 3.5 7.8 0.00 0.00 0.00 57 1017.4
20260503033041 47 248 3.5 7.0 0.00 0.00 0.00 57 1017.4
20260503031528 47 219 2.6 7.0 0.00 0.00 0.00 56 1017.5
20260503030028 47 225 1.7 5.2 0.00 0.00 0.00 55 1017.5
20260503024528 47 219 1.7 4.3 0.00 0.00 0.00 54 1017.6
20260503023028 48 216 0.9 6.1 0.00 0.00 0.00 53 1017.6
20260503021529 48 231 2.6 5.2 0.00 0.00 0.00 52 1017.5
20260503020028 48 202 3.5 6.1 0.00 0.00 0.00 51 1017.5
20260503014541 49 200 2.6 4.3 0.00 0.00 0.00 49 1017.6
20260503013034 49 210 3.5 5.2 0.00 0.00 0.00 48 1017.5
20260503011530 49 207 0.9 2.6 0.00 0.00 0.00 48 1017.4
20260503010031 50 191 1.7 2.6 0.00 0.00 0.00 46 1017.4
20260503004530 51 202 0.0 1.7 0.00 0.00 0.00 44 1017.3
20260503003029 52 215 0.9 0.9 0.00 0.00 0.00 42 1017.5
20260503001530 51 0 0.0 0.9 0.00 0.00 0.00 43 1017.5